contact:dominique.lefevre@mio.osupytheas.fr, maurice.libes@osupytheas.fr, didier.mallarino@osupytheas.fr
Project:EMSO http://www.emso-fr.org/EMSO-France
Depth: 2436.0 m
Title:EMSO Ligure Ouest : Data MII capteur AQUADOPP
Date,Latitude,Longitude,X_East,Y_North,Z_Up,Amplitude_X,Amplitude_Y,Amplitude_Z,Batterie,SoundSpeed,Heading,Pitch,Roll,Pressure,TIS,Speed,Direction
, degrees North, degrees East, m.s-1, m.s-1,m.s-1, 1, 1, 1, Volt, m.s-1, degree, degree, degree, dbar, degree_C, m.s-1, degree
2019-12-30T00:04:03,42.805,6.029,-0.027,0.0,-0.002,110.0,113.0,108.0,13.3,1505.3,324.1,-0.8,1.8,2470.27,13.31,0.026,270.0
2019-12-30T00:07:03,42.805,6.029,-0.058,-0.01,-0.013,111.0,112.0,107.0,13.4,1505.3,324.2,-0.7,1.8,2470.264,13.31,0.058,260.2
2019-12-30T00:10:03,42.805,6.029,-0.034,0.004,-0.018,111.0,114.0,106.0,13.3,1505.3,325.4,-0.7,1.8,2470.239,13.32,0.034,276.7
2019-12-30T00:13:03,42.805,6.029,-0.036,0.005,-0.022,112.0,112.0,105.0,13.3,1505.3,328.1,-0.7,1.8,2470.267,13.32,0.036,277.9
2019-12-30T00:16:03,42.805,6.029,-0.038,0.003,0.009,112.0,113.0,107.0,13.4,1505.3,325.3,-0.7,1.8,2470.273,13.32,0.038,274.5
2019-12-30T00:19:03,42.805,6.029,-0.023,0.005,-0.001,110.0,113.0,106.0,13.4,1505.3,324.6,-0.7,1.9,2470.227,13.33,0.023,282.3
2019-12-30T00:22:03,42.805,6.029,-0.039,0.004,-0.005,111.0,112.0,106.0,13.4,1505.3,328.6,-0.7,1.9,2470.269,13.33,0.039,275.9
2019-12-30T00:25:03,42.805,6.029,-0.023,-0.007,-0.004,112.0,111.0,107.0,13.4,1505.3,323.0,-0.7,1.8,2470.261,13.33,0.024,253.1
2019-12-30T00:28:03,42.805,6.029,-0.037,0.005,0.002,111.0,113.0,107.0,13.4,1505.3,326.7,-0.7,1.8,2470.227,13.33,0.037,277.7
2019-12-30T00:31:03,42.805,6.029,-0.03,0.021,-0.03,112.0,113.0,107.0,13.4,1505.3,327.2,-0.7,1.9,2470.206,13.33,0.036,305.0
2019-12-30T00:34:03,42.805,6.029,-0.044,0.002,-0.011,111.0,112.0,106.0,13.3,1505.3,323.9,-0.7,1.9,2470.21,13.33,0.044,272.6
2019-12-30T00:37:03,42.805,6.029,-0.022,0.011,-0.01,111.0,112.0,106.0,13.4,1505.3,325.0,-0.7,1.8,2470.191,13.33,0.024,296.6
2019-12-30T00:40:03,42.805,6.029,-0.025,-0.011,-0.002,110.0,114.0,107.0,13.3,1505.3,324.0,-0.7,1.8,2470.276,13.33,0.027,246.3
2019-12-30T00:43:03,42.805,6.029,-0.023,0.013,-0.015,111.0,111.0,107.0,13.3,1505.3,325.3,-0.7,1.9,2470.235,13.33,0.026,299.5
2019-12-30T00:46:03,42.805,6.029,-0.049,-0.001,-0.035,109.0,114.0,108.0,13.4,1505.3,327.8,-0.7,1.8,2470.251,13.33,0.049,268.8
2019-12-30T00:49:03,42.805,6.029,-0.026,-0.005,-0.008,111.0,112.0,106.0,13.3,1505.3,326.7,-0.7,1.8,2470.188,13.33,0.026,259.1
2019-12-30T00:52:03,42.805,6.029,-0.043,0.009,-0.004,112.0,112.0,106.0,13.3,1505.3,328.4,-0.7,1.9,2470.221,13.33,0.043,281.8
2019-12-30T00:55:03,42.805,6.029,-0.039,0.009,-0.034,110.0,114.0,108.0,13.3,1505.3,325.8,-0.7,1.8,2470.234,13.33,0.04,283.0
2019-12-30T00:58:03,42.805,6.029,-0.061,0.002,-0.035,110.0,112.0,105.0,13.3,1505.3,328.0,-0.7,1.8,2470.204,13.33,0.061,271.9
2019-12-30T01:04:03,42.805,6.029,-0.039,0.014,-0.048,110.0,115.0,107.0,13.4,1505.3,328.5,-0.7,1.8,2470.257,13.31,0.041,289.7
2019-12-30T01:07:03,42.805,6.029,-0.028,0.009,0.013,113.0,112.0,106.0,13.4,1505.3,326.2,-0.7,1.8,2470.254,13.31,0.029,287.8
2019-12-30T01:10:03,42.805,6.029,-0.038,0.002,-0.018,111.0,112.0,106.0,13.4,1505.3,326.5,-0.8,1.8,2470.257,13.32,0.038,273.0
2019-12-30T01:13:03,42.805,6.029,-0.042,-0.009,-0.017,111.0,113.0,107.0,13.4,1505.3,324.0,-0.7,1.8,2470.215,13.32,0.042,257.9
2019-12-30T01:16:03,42.805,6.029,-0.042,0.01,-0.002,110.0,113.0,107.0,13.4,1505.3,326.1,-0.7,1.8,2470.235,13.32,0.043,283.4
2019-12-30T01:19:03,42.805,6.029,-0.068,0.005,-0.037,110.0,113.0,107.0,13.4,1505.3,325.5,-0.7,1.8,2470.232,13.33,0.068,274.2
2019-12-30T01:22:03,42.805,6.029,-0.034,0.015,-0.031,111.0,113.0,105.0,13.4,1505.3,326.8,-0.7,1.8,2470.24,13.33,0.037,293.8
2019-12-30T01:25:03,42.805,6.029,-0.049,-0.002,0.007,112.0,113.0,107.0,13.4,1505.3,326.6,-0.7,1.8,2470.197,13.33,0.049,267.7
2019-12-30T01:28:03,42.805,6.029,-0.047,0.009,-0.027,110.0,114.0,107.0,13.4,1505.3,327.1,-0.7,1.8,2470.239,13.33,0.047,280.8
2019-12-30T01:31:03,42.805,6.029,-0.035,-0.001,0.018,111.0,112.0,106.0,13.3,1505.3,327.1,-0.7,1.8,2470.203,13.33,0.035,268.4
2019-12-30T01:34:03,42.805,6.029,-0.033,-0.003,0.012,110.0,113.0,106.0,13.3,1505.3,326.5,-0.7,1.8,2470.205,13.33,0.033,264.8
2019-12-30T01:37:03,42.805,6.029,-0.026,0.0,-0.025,111.0,114.0,107.0,13.3,1505.3,326.0,-0.7,1.8,2470.22,13.33,0.026,270.0
2019-12-30T01:40:03,42.805,6.029,-0.045,0.016,-0.048,110.0,113.0,107.0,13.4,1505.3,326.1,-0.7,1.8,2470.261,13.33,0.047,289.6
2019-12-30T01:43:03,42.805,6.029,-0.027,-0.011,-0.007,111.0,113.0,107.0,13.4,1505.3,324.4,-0.7,1.8,2470.185,13.33,0.029,247.8
2019-12-30T01:46:03,42.805,6.029,-0.021,-0.011,-0.005,112.0,112.0,107.0,13.4,1505.3,325.1,-0.7,1.8,2470.212,13.33,0.023,242.4
2019-12-30T01:49:03,42.805,6.029,-0.035,0.001,-0.03,111.0,113.0,106.0,13.3,1505.3,326.6,-0.7,1.8,2470.263,13.33,0.035,271.6
2019-12-30T01:52:03,42.805,6.029,-0.038,0.015,-0.018,111.0,115.0,108.0,13.3,1505.3,326.4,-0.7,1.9,2470.227,13.33,0.04,291.5
2019-12-30T01:55:03,42.805,6.029,-0.049,0.013,-0.039,111.0,114.0,107.0,13.4,1505.3,325.7,-0.7,1.8,2470.193,13.33,0.05,284.9
2019-12-30T01:58:03,42.805,6.029,-0.047,0.005,-0.015,111.0,114.0,106.0,13.4,1505.3,326.8,-0.7,1.8,2470.166,13.33,0.047,276.1
2019-12-30T02:04:03,42.805,6.029,-0.042,-0.004,0.007,111.0,114.0,106.0,13.4,1505.3,325.9,-0.7,1.8,2470.23,13.31,0.042,264.6
2019-12-30T02:07:03,42.805,6.029,-0.03,0.012,0.0,112.0,111.0,107.0,13.3,1505.3,326.7,-0.7,1.8,2470.162,13.32,0.032,291.8
2019-12-30T02:10:03,42.805,6.029,-0.045,0.02,0.002,111.0,113.0,108.0,13.4,1505.3,327.2,-0.7,1.8,2470.208,13.32,0.049,294.0
2019-12-30T02:13:03,42.805,6.029,-0.047,0.015,0.006,112.0,113.0,107.0,13.4,1505.3,327.1,-0.7,1.8,2470.238,13.32,0.049,287.7
2019-12-30T02:16:03,42.805,6.029,-0.028,0.018,-0.015,112.0,115.0,107.0,13.4,1505.3,323.0,-0.7,1.8,2470.196,13.33,0.033,302.7
2019-12-30T02:19:03,42.805,6.029,-0.028,0.003,0.007,111.0,114.0,107.0,13.4,1505.3,326.8,-0.7,1.9,2470.21,13.33,0.028,276.1
2019-12-30T02:22:03,42.805,6.029,-0.043,0.018,-0.033,111.0,114.0,106.0,13.4,1505.3,325.0,-0.7,1.9,2470.29,13.33,0.046,292.7
2019-12-30T02:25:03,42.805,6.029,-0.035,0.018,-0.002,112.0,114.0,107.0,13.4,1505.3,326.2,-0.7,1.8,2470.23,13.33,0.039,297.2
2019-12-30T02:28:03,42.805,6.029,-0.007,0.016,-0.018,111.0,113.0,107.0,13.4,1505.3,323.8,-0.7,1.8,2470.205,13.33,0.017,336.4
2019-12-30T02:31:03,42.805,6.029,-0.025,0.019,-0.038,112.0,114.0,106.0,13.4,1505.3,324.5,-0.7,1.8,2470.239,13.33,0.031,307.2
2019-12-30T02:34:03,42.805,6.029,-0.042,0.0,-0.003,111.0,112.0,108.0,13.4,1505.3,325.4,-0.7,1.9,2470.232,13.33,0.042,270.0
2019-12-30T02:37:03,42.805,6.029,-0.038,0.007,-0.019,112.0,114.0,108.0,13.4,1505.3,327.1,-0.7,1.8,2470.247,13.33,0.038,280.4
2019-12-30T02:40:03,42.805,6.029,-0.057,-0.004,-0.033,112.0,114.0,108.0,13.4,1505.3,327.3,-0.8,1.9,2470.143,13.33,0.057,266.0
2019-12-30T02:43:03,42.805,6.029,-0.047,0.013,-0.012,111.0,113.0,107.0,13.4,1505.3,323.3,-0.7,1.9,2470.159,13.33,0.048,285.5
2019-12-30T02:46:03,42.805,6.029,-0.033,0.009,-0.027,111.0,115.0,106.0,13.3,1505.3,324.5,-0.7,1.9,2470.155,13.33,0.034,285.3
2019-12-30T02:49:03,42.805,6.029,-0.046,-0.002,-0.008,112.0,113.0,106.0,13.3,1505.3,323.5,-0.7,1.9,2470.175,13.33,0.046,267.5
2019-12-30T02:52:03,42.805,6.029,-0.038,0.02,-0.02,111.0,114.0,107.0,13.4,1505.3,324.3,-0.7,1.8,2470.168,13.33,0.042,297.8
2019-12-30T02:55:03,42.805,6.029,-0.043,0.004,-0.025,111.0,114.0,107.0,13.3,1505.3,325.6,-0.7,1.8,2470.183,13.33,0.043,275.3
2019-12-30T02:58:03,42.805,6.029,-0.067,0.01,0.014,111.0,114.0,106.0,13.4,1505.3,324.9,-0.7,1.8,2470.212,13.33,0.067,278.5
2019-12-30T03:04:03,42.805,6.029,-0.036,-0.001,-0.015,110.0,115.0,108.0,13.3,1505.3,327.2,-0.7,1.9,2470.213,13.31,0.036,268.4
2019-12-30T03:07:03,42.805,6.029,-0.045,0.015,0.001,111.0,112.0,106.0,13.4,1505.3,326.4,-0.7,1.8,2470.212,13.32,0.047,288.4
2019-12-30T03:10:03,42.805,6.029,-0.051,0.022,0.001,112.0,114.0,107.0,13.4,1505.3,325.7,-0.7,1.8,2470.226,13.32,0.055,293.3
2019-12-30T03:13:03,42.805,6.029,-0.072,0.001,-0.013,112.0,115.0,107.0,13.4,1505.3,324.6,-0.7,1.9,2470.211,13.32,0.072,270.8
2019-12-30T03:16:03,42.805,6.029,-0.056,0.019,-0.006,112.0,114.0,106.0,13.4,1505.3,326.6,-0.7,1.8,2470.245,13.33,0.059,288.7
2019-12-30T03:19:03,42.805,6.029,-0.034,0.038,-0.004,112.0,114.0,105.0,13.3,1505.3,327.0,-0.7,1.8,2470.168,13.33,0.05,318.2
2019-12-30T03:22:03,42.805,6.029,-0.036,0.026,-0.021,110.0,114.0,107.0,13.4,1505.3,324.5,-0.7,1.9,2470.155,13.33,0.044,305.8
2019-12-30T03:25:03,42.805,6.029,-0.04,0.011,-0.015,111.0,115.0,106.0,13.4,1505.3,326.0,-0.7,1.8,2470.222,13.33,0.041,285.4
2019-12-30T03:28:03,42.805,6.029,-0.053,0.013,-0.043,110.0,114.0,108.0,13.4,1505.3,326.1,-0.7,1.8,2470.225,13.33,0.054,283.8
2019-12-30T03:31:03,42.805,6.029,-0.053,0.011,-0.017,113.0,114.0,106.0,13.3,1505.3,325.6,-0.7,1.8,2470.155,13.33,0.054,281.7
2019-12-30T03:34:03,42.805,6.029,-0.039,-0.007,-0.013,111.0,113.0,107.0,13.3,1505.3,323.3,-0.7,1.9,2470.207,13.33,0.039,259.8
2019-12-30T03:37:03,42.805,6.029,-0.085,0.021,-0.013,110.0,114.0,106.0,13.3,1505.3,326.3,-0.7,1.8,2470.156,13.33,0.087,283.9
2019-12-30T03:40:03,42.805,6.029,-0.054,0.041,-0.03,110.0,115.0,106.0,13.3,1505.3,324.5,-0.7,1.9,2470.213,13.33,0.067,307.2
2019-12-30T03:43:03,42.805,6.029,-0.066,0.017,-0.004,109.0,114.0,106.0,13.3,1505.3,327.2,-0.7,1.9,2470.187,13.33,0.068,284.4
2019-12-30T03:46:03,42.805,6.029,-0.037,0.01,-0.035,112.0,113.0,106.0,13.4,1505.3,326.6,-0.7,1.9,2470.196,13.33,0.038,285.1
2019-12-30T03:49:03,42.805,6.029,-0.005,0.021,-0.011,112.0,113.0,106.0,13.3,1505.3,326.0,-0.7,1.8,2470.196,13.33,0.021,346.6
2019-12-30T03:52:03,42.805,6.029,-0.056,0.0,-0.036,111.0,115.0,108.0,13.3,1505.3,325.0,-0.7,1.8,2470.173,13.33,0.056,270.0
2019-12-30T03:55:03,42.805,6.029,-0.049,0.024,-0.007,111.0,115.0,106.0,13.4,1505.3,328.3,-0.7,1.8,2470.211,13.33,0.054,296.1
2019-12-30T03:58:03,42.805,6.029,-0.05,0.014,-0.02,111.0,115.0,106.0,13.4,1505.3,325.8,-0.7,1.8,2470.19,13.33,0.051,285.6
2019-12-30T04:04:03,42.805,6.029,-0.037,0.012,-0.049,111.0,113.0,107.0,13.4,1505.3,323.2,-0.8,1.8,2470.203,13.31,0.038,288.0
2019-12-30T04:07:03,42.805,6.029,-0.049,0.017,-0.015,110.0,114.0,107.0,13.4,1505.3,325.1,-0.8,1.8,2470.167,13.32,0.051,289.1
2019-12-30T04:10:03,42.805,6.029,-0.037,0.032,-0.018,111.0,115.0,107.0,13.4,1505.3,328.6,-0.7,1.8,2470.23,13.32,0.048,310.9
2019-12-30T04:13:03,42.805,6.029,-0.044,0.021,-0.001,111.0,115.0,107.0,13.3,1505.3,324.5,-0.7,1.8,2470.194,13.32,0.048,295.5
2019-12-30T04:16:03,42.805,6.029,-0.049,0.025,-0.038,113.0,115.0,106.0,13.4,1505.3,326.0,-0.7,1.9,2470.239,13.32,0.055,297.0
2019-12-30T04:19:03,42.805,6.029,-0.051,0.034,-0.004,111.0,115.0,106.0,13.4,1505.3,323.3,-0.7,1.8,2470.179,13.33,0.061,303.7
2019-12-30T04:22:03,42.805,6.029,-0.066,0.008,-0.02,112.0,114.0,106.0,13.3,1505.3,327.4,-0.7,1.8,2470.25,13.33,0.066,276.9
2019-12-30T04:25:03,42.805,6.029,-0.055,0.022,0.001,111.0,114.0,108.0,13.4,1505.3,325.8,-0.7,1.8,2470.202,13.33,0.059,291.8
2019-12-30T04:28:03,42.805,6.029,-0.044,0.032,0.04,112.0,113.0,107.0,13.3,1505.3,326.9,-0.7,1.9,2470.185,13.33,0.054,306.0
2019-12-30T04:34:03,42.805,6.029,-0.055,0.007,0.0,111.0,113.0,106.0,13.4,1505.3,324.6,-0.7,1.8,2470.248,13.31,0.055,277.3
2019-12-30T04:37:03,42.805,6.029,-0.054,0.016,-0.026,110.0,113.0,105.0,13.3,1505.3,323.7,-0.8,1.9,2470.249,13.32,0.056,286.5
2019-12-30T04:40:03,42.805,6.029,-0.028,0.006,-0.017,111.0,115.0,106.0,13.3,1505.3,326.2,-0.7,1.9,2470.246,13.32,0.028,282.1
2019-12-30T04:43:03,42.805,6.029,-0.053,0.012,-0.003,110.0,115.0,106.0,13.4,1505.3,328.6,-0.7,1.8,2470.185,13.32,0.054,282.8
2019-12-30T04:46:03,42.805,6.029,-0.032,0.011,-0.026,111.0,114.0,106.0,13.4,1505.3,323.9,-0.7,1.9,2470.202,13.32,0.033,289.0
2019-12-30T04:49:03,42.805,6.029,-0.043,0.007,0.01,111.0,114.0,107.0,13.4,1505.3,326.5,-0.7,1.8,2470.224,13.33,0.043,279.2
2019-12-30T04:52:03,42.805,6.029,-0.038,0.024,-0.044,111.0,115.0,106.0,13.4,1505.3,327.1,-0.7,1.8,2470.235,13.33,0.044,302.3
2019-12-30T04:55:03,42.805,6.029,-0.033,0.032,-0.011,111.0,114.0,105.0,13.4,1505.3,325.6,-0.7,1.8,2470.248,13.33,0.045,314.1
2019-12-30T04:58:03,42.805,6.029,-0.056,0.025,-0.02,112.0,114.0,106.0,13.4,1505.3,326.7,-0.7,1.8,2470.222,13.33,0.061,294.1
2019-12-30T05:04:03,42.805,6.029,-0.052,0.029,-0.016,112.0,115.0,106.0,13.4,1505.3,323.7,-0.7,1.8,2470.232,13.31,0.059,299.1
2019-12-30T05:07:03,42.805,6.029,-0.043,0.02,0.008,112.0,115.0,105.0,13.3,1505.3,326.5,-0.7,1.8,2470.241,13.31,0.047,294.9
2019-12-30T05:10:03,42.805,6.029,-0.021,0.011,-0.008,112.0,114.0,107.0,13.4,1505.3,326.6,-0.7,1.8,2470.268,13.32,0.023,297.6
2019-12-30T05:13:03,42.805,6.029,-0.042,0.023,-0.02,113.0,113.0,107.0,13.4,1505.3,325.1,-0.7,1.8,2470.214,13.32,0.047,298.7
2019-12-30T05:16:03,42.805,6.029,-0.05,0.003,-0.043,111.0,115.0,105.0,13.4,1505.3,323.9,-0.7,1.8,2470.204,13.32,0.05,273.4
2019-12-30T05:19:03,42.805,6.029,-0.024,0.022,-0.014,110.0,116.0,107.0,13.4,1505.3,326.3,-0.7,1.9,2470.266,13.33,0.032,312.5
2019-12-30T05:22:03,42.805,6.029,-0.048,0.019,-0.019,112.0,113.0,106.0,13.3,1505.3,327.4,-0.7,1.8,2470.219,13.33,0.051,291.6
2019-12-30T05:25:03,42.805,6.029,-0.044,0.023,-0.026,109.0,115.0,107.0,13.4,1505.3,327.1,-0.7,1.8,2470.243,13.33,0.049,297.6
2019-12-30T05:28:03,42.805,6.029,-0.047,-0.001,-0.028,112.0,115.0,106.0,13.3,1505.3,326.7,-0.7,1.8,2470.263,13.33,0.047,268.8
2019-12-30T05:31:03,42.805,6.029,-0.025,0.005,-0.013,111.0,115.0,106.0,13.3,1505.3,325.4,-0.7,1.9,2470.218,13.33,0.025,281.3
2019-12-30T05:34:03,42.805,6.029,-0.034,0.017,-0.019,112.0,115.0,108.0,13.4,1505.3,326.8,-0.7,1.8,2470.27,13.33,0.038,296.6
2019-12-30T05:37:03,42.805,6.029,-0.035,0.024,-0.025,112.0,114.0,107.0,13.4,1505.3,327.3,-0.7,1.9,2470.25,13.33,0.042,304.4
2019-12-30T05:40:03,42.805,6.029,-0.038,0.035,-0.019,111.0,115.0,108.0,13.3,1505.3,326.4,-0.7,1.8,2470.223,13.33,0.051,312.6
2019-12-30T05:43:03,42.805,6.029,-0.031,0.03,-0.014,112.0,114.0,106.0,13.4,1505.3,326.0,-0.7,1.8,2470.223,13.33,0.043,314.1
2019-12-30T05:46:03,42.805,6.029,-0.035,0.004,-0.005,111.0,113.0,108.0,13.4,1505.3,324.5,-0.7,1.8,2470.208,13.33,0.035,276.5
2019-12-30T05:49:03,42.805,6.029,-0.033,0.009,-0.034,112.0,113.0,107.0,13.4,1505.3,324.6,-0.7,1.8,2470.18,13.33,0.034,285.3
2019-12-30T05:52:03,42.805,6.029,-0.042,0.022,0.01,111.0,116.0,107.0,13.4,1505.3,327.9,-0.7,1.8,2470.258,13.33,0.047,297.6
2019-12-30T05:55:03,42.805,6.029,-0.051,0.001,-0.012,110.0,115.0,106.0,13.4,1505.3,325.0,-0.7,1.8,2470.223,13.33,0.051,271.1
2019-12-30T05:58:03,42.805,6.029,-0.06,0.018,-0.007,109.0,114.0,106.0,13.4,1505.3,323.7,-0.7,1.8,2470.235,13.33,0.062,286.7
2019-12-30T06:04:03,42.805,6.029,-0.064,0.025,-0.025,111.0,115.0,108.0,13.3,1505.3,327.2,-0.7,1.8,2470.256,13.31,0.068,291.3
2019-12-30T06:07:03,42.805,6.029,-0.05,0.021,-0.015,111.0,115.0,106.0,13.3,1505.3,324.6,-0.8,1.8,2470.252,13.31,0.054,292.8
2019-12-30T06:10:03,42.805,6.029,-0.033,0.018,-0.01,111.0,114.0,106.0,13.4,1505.3,327.3,-0.7,1.8,2470.292,13.32,0.037,298.6
2019-12-30T06:13:03,42.805,6.029,-0.049,0.033,-0.041,111.0,115.0,107.0,13.4,1505.3,323.5,-0.7,1.8,2470.279,13.32,0.059,304.0
2019-12-30T06:16:03,42.805,6.029,-0.038,0.035,-0.022,111.0,114.0,106.0,13.4,1505.3,326.0,-0.7,1.9,2470.255,13.32,0.051,312.6
2019-12-30T06:19:03,42.805,6.029,-0.07,0.036,-0.018,110.0,115.0,106.0,13.4,1505.3,324.1,-0.7,1.8,2470.307,13.33,0.078,297.2
2019-12-30T06:22:03,42.805,6.029,-0.065,0.024,-0.024,110.0,115.0,107.0,13.4,1505.3,328.1,-0.7,1.9,2470.255,13.33,0.069,290.3
2019-12-30T06:28:03,42.805,6.029,-0.015,0.02,-0.018,112.0,114.0,107.0,13.4,1505.3,327.1,-0.8,1.8,2470.316,13.31,0.025,323.1
2019-12-30T06:31:03,42.805,6.029,-0.06,0.028,-0.008,111.0,114.0,106.0,13.4,1505.3,325.5,-0.8,1.8,2470.299,13.32,0.066,295.0
2019-12-30T06:34:03,42.805,6.029,-0.038,0.012,-0.005,110.0,115.0,107.0,13.4,1505.3,327.8,-0.8,1.8,2470.28,13.32,0.039,287.5
2019-12-30T06:37:03,42.805,6.029,-0.043,0.028,-0.032,111.0,115.0,107.0,13.3,1505.3,325.4,-0.7,1.8,2470.303,13.32,0.051,303.1
2019-12-30T06:40:03,42.805,6.029,-0.053,0.036,-0.019,110.0,115.0,105.0,13.4,1505.3,325.2,-0.7,1.8,2470.337,13.33,0.064,304.2
2019-12-30T06:43:03,42.805,6.029,-0.04,0.024,0.002,111.0,113.0,107.0,13.4,1505.3,327.9,-0.7,1.8,2470.304,13.33,0.046,301.0
2019-12-30T06:46:03,42.805,6.029,-0.059,0.008,-0.035,110.0,114.0,107.0,13.4,1505.3,327.1,-0.7,1.9,2470.324,13.33,0.059,277.7
2019-12-30T06:49:03,42.805,6.029,-0.038,0.027,-0.014,110.0,115.0,106.0,13.4,1505.3,327.9,-0.7,1.8,2470.296,13.33,0.046,305.4
2019-12-30T06:52:03,42.805,6.029,-0.043,-0.008,-0.031,110.0,114.0,106.0,13.4,1505.3,324.9,-0.7,1.8,2470.321,13.33,0.043,259.5
2019-12-30T06:55:03,42.805,6.029,-0.051,0.013,-0.025,111.0,114.0,106.0,13.4,1505.3,325.5,-0.7,1.8,2470.34,13.33,0.052,284.3
2019-12-30T06:58:03,42.805,6.029,-0.024,0.021,0.0,110.0,113.0,107.0,13.4,1505.3,323.6,-0.7,1.8,2470.339,13.33,0.031,311.2
2019-12-30T07:04:03,42.805,6.029,-0.025,0.015,-0.034,109.0,115.0,106.0,13.4,1505.3,326.5,-0.7,1.8,2470.37,13.31,0.029,301.0
2019-12-30T07:07:03,42.805,6.029,-0.043,0.006,0.035,111.0,116.0,106.0,13.4,1505.3,323.4,-0.7,1.8,2470.376,13.31,0.043,277.9
2019-12-30T07:10:03,42.805,6.029,-0.042,0.033,0.012,111.0,115.0,107.0,13.4,1505.3,325.2,-0.7,1.8,2470.346,13.32,0.053,308.2
2019-12-30T07:13:03,42.805,6.029,-0.045,0.029,0.013,111.0,114.0,107.0,13.4,1505.3,325.4,-0.7,1.8,2470.301,13.32,0.053,302.8
2019-12-30T07:16:03,42.805,6.029,-0.043,0.003,0.021,112.0,114.0,107.0,13.3,1505.3,324.8,-0.7,1.8,2470.364,13.32,0.043,274.0
2019-12-30T07:19:03,42.805,6.029,-0.008,0.022,0.003,112.0,114.0,105.0,13.4,1505.3,325.4,-0.7,1.8,2470.369,13.33,0.023,340.0
2019-12-30T07:22:03,42.805,6.029,-0.04,0.027,-0.038,111.0,112.0,107.0,13.4,1505.3,325.2,-0.7,1.9,2470.332,13.33,0.048,304.0
2019-12-30T07:25:03,42.805,6.029,-0.032,0.008,-0.016,111.0,114.0,106.0,13.3,1505.3,325.7,-0.7,1.8,2470.379,13.33,0.032,284.0
2019-12-30T07:28:03,42.805,6.029,-0.042,0.03,-0.014,111.0,115.0,107.0,13.4,1505.3,324.6,-0.7,1.8,2470.366,13.33,0.051,305.5
2019-12-30T07:31:03,42.805,6.029,-0.06,0.029,-0.059,109.0,115.0,106.0,13.4,1505.3,326.5,-0.7,1.8,2470.348,13.33,0.066,295.8
2019-12-30T07:34:03,42.805,6.029,-0.039,0.026,-0.018,111.0,114.0,107.0,13.3,1505.3,326.9,-0.7,1.8,2470.355,13.33,0.046,303.7
2019-12-30T07:37:03,42.805,6.029,-0.071,0.024,-0.029,111.0,116.0,106.0,13.3,1505.3,325.0,-0.7,1.8,2470.366,13.33,0.074,288.7
2019-12-30T07:40:03,42.805,6.029,-0.032,0.026,0.001,110.0,115.0,106.0,13.4,1505.3,328.2,-0.7,1.8,2470.303,13.33,0.041,309.1
2019-12-30T07:43:03,42.805,6.029,-0.034,0.024,0.001,110.0,115.0,106.0,13.4,1505.3,324.7,-0.7,1.8,2470.381,13.33,0.041,305.2
2019-12-30T07:46:03,42.805,6.029,-0.048,0.013,-0.019,111.0,114.0,105.0,13.4,1505.3,327.0,-0.7,1.8,2470.35,13.33,0.049,285.2
2019-12-30T07:49:03,42.805,6.029,-0.038,0.025,-0.016,110.0,115.0,107.0,13.4,1505.3,326.4,-0.7,1.8,2470.388,13.33,0.045,303.3
2019-12-30T07:52:03,42.805,6.029,-0.04,0.044,0.018,111.0,114.0,106.0,13.4,1505.3,326.5,-0.7,1.8,2470.352,13.33,0.059,317.7
2019-12-30T07:55:03,42.805,6.029,-0.052,0.015,-0.004,112.0,116.0,107.0,13.4,1505.3,326.4,-0.6,1.8,2470.36,13.33,0.054,286.1
2019-12-30T07:58:03,42.805,6.029,-0.057,0.013,-0.025,111.0,116.0,107.0,13.4,1505.3,327.2,-0.7,1.8,2470.395,13.33,0.058,282.8
2019-12-30T08:04:03,42.805,6.029,-0.055,0.02,-0.02,112.0,115.0,107.0,13.3,1505.3,327.8,-0.7,1.8,2470.404,13.31,0.058,290.0
2019-12-30T08:07:03,42.805,6.029,-0.028,0.01,-0.014,111.0,115.0,105.0,13.3,1505.3,328.6,-0.7,1.8,2470.452,13.31,0.029,289.6
2019-12-30T08:10:03,42.805,6.029,-0.049,0.014,-0.013,112.0,116.0,106.0,13.4,1505.3,328.3,-0.7,1.8,2470.453,13.32,0.05,285.9
2019-12-30T08:13:03,42.805,6.029,-0.062,0.007,-0.003,112.0,115.0,108.0,13.4,1505.3,323.2,-0.7,1.9,2470.424,13.32,0.062,276.4
2019-12-30T08:16:03,42.805,6.029,-0.036,0.016,0.018,111.0,113.0,106.0,13.3,1505.3,326.1,-0.7,1.8,2470.387,13.32,0.039,294.0
2019-12-30T08:19:03,42.805,6.029,-0.038,0.028,-0.024,111.0,115.0,108.0,13.3,1505.3,328.5,-0.7,1.8,2470.44,13.33,0.047,306.4
2019-12-30T08:22:03,42.805,6.029,-0.068,0.015,0.0,112.0,115.0,107.0,13.3,1505.3,324.2,-0.7,1.8,2470.448,13.33,0.069,282.4
2019-12-30T08:25:03,42.805,6.029,-0.059,0.023,0.013,110.0,114.0,106.0,13.3,1505.3,324.5,-0.7,1.8,2470.427,13.33,0.063,291.3
2019-12-30T08:28:03,42.805,6.029,-0.044,0.034,-0.03,111.0,114.0,105.0,13.4,1505.3,325.9,-0.7,1.9,2470.372,13.33,0.055,307.7
2019-12-30T08:31:03,42.805,6.029,-0.068,0.027,-0.027,110.0,115.0,106.0,13.3,1505.3,323.4,-0.7,1.8,2470.41,13.33,0.073,291.7
2019-12-30T08:34:03,42.805,6.029,-0.05,0.03,-0.035,111.0,115.0,106.0,13.4,1505.3,326.9,-0.7,1.8,2470.411,13.33,0.058,301.0
2019-12-30T08:37:03,42.805,6.029,-0.033,0.019,-0.01,111.0,115.0,106.0,13.4,1505.3,326.6,-0.7,1.8,2470.458,13.33,0.038,299.9
2019-12-30T08:40:03,42.805,6.029,-0.042,0.017,-0.01,110.0,116.0,107.0,13.3,1505.3,326.7,-0.7,1.8,2470.44,13.33,0.045,292.0
2019-12-30T08:43:03,42.805,6.029,-0.027,0.026,0.003,110.0,115.0,106.0,13.4,1505.3,326.5,-0.7,1.8,2470.419,13.33,0.037,313.9
2019-12-30T08:46:03,42.805,6.029,-0.058,0.024,-0.014,112.0,115.0,107.0,13.3,1505.3,327.1,-0.7,1.8,2470.374,13.33,0.062,292.5
2019-12-30T08:49:03,42.805,6.029,-0.044,0.03,0.0,111.0,116.0,107.0,13.4,1505.3,327.0,-0.7,1.8,2470.411,13.33,0.053,304.3
2019-12-30T08:52:03,42.805,6.029,-0.033,0.004,-0.002,110.0,113.0,106.0,13.4,1505.3,326.2,-0.7,1.9,2470.408,13.33,0.033,276.9
2019-12-30T08:55:03,42.805,6.029,-0.046,0.043,-0.004,110.0,116.0,106.0,13.4,1505.3,325.6,-0.7,1.8,2470.445,13.33,0.062,313.1
2019-12-30T08:58:03,42.805,6.029,-0.05,0.026,-0.013,110.0,116.0,105.0,13.3,1505.3,326.0,-0.7,1.8,2470.435,13.33,0.056,297.5
2019-12-30T09:04:03,42.805,6.029,-0.057,0.03,0.002,110.0,115.0,105.0,13.4,1505.3,324.4,-0.7,1.8,2470.492,13.31,0.064,297.8
2019-12-30T09:07:03,42.805,6.029,-0.054,0.035,0.0,111.0,116.0,107.0,13.4,1505.3,327.9,-0.7,1.8,2470.465,13.31,0.064,303.0
2019-12-30T09:10:03,42.805,6.029,-0.029,0.032,-0.009,110.0,115.0,106.0,13.4,1505.3,327.2,-0.7,1.8,2470.431,13.32,0.043,317.8
2019-12-30T09:13:03,42.805,6.029,-0.059,0.046,-0.007,110.0,116.0,106.0,13.4,1505.3,324.5,-0.7,1.8,2470.431,13.32,0.074,307.9
2019-12-30T09:16:03,42.805,6.029,-0.048,0.013,0.002,110.0,116.0,105.0,13.3,1505.3,325.7,-0.7,1.8,2470.434,13.32,0.049,285.2
2019-12-30T09:19:03,42.805,6.029,-0.054,0.028,-0.019,111.0,115.0,107.0,13.4,1505.3,324.0,-0.7,1.8,2470.459,13.32,0.06,297.4
2019-12-30T09:22:03,42.805,6.029,-0.035,0.002,0.006,112.0,115.0,106.0,13.4,1505.3,324.2,-0.7,1.8,2470.434,13.33,0.035,273.3
2019-12-30T09:25:03,42.805,6.029,-0.047,0.022,-0.044,110.0,116.0,107.0,13.4,1505.3,326.2,-0.7,1.8,2470.499,13.33,0.051,295.1
2019-12-30T09:28:03,42.805,6.029,-0.059,0.024,-0.031,112.0,116.0,105.0,13.4,1505.3,327.2,-0.7,1.8,2470.433,13.33,0.063,292.1
2019-12-30T09:31:03,42.805,6.029,-0.035,0.009,-0.012,111.0,115.0,106.0,13.3,1505.3,324.0,-0.7,1.8,2470.451,13.33,0.036,284.4
2019-12-30T09:34:03,42.805,6.029,-0.026,0.015,0.026,111.0,115.0,106.0,13.3,1505.3,324.5,-0.7,1.8,2470.463,13.33,0.03,300.0
2019-12-30T09:37:03,42.805,6.029,-0.047,0.018,0.012,113.0,115.0,106.0,13.3,1505.3,324.6,-0.7,1.8,2470.435,13.33,0.05,291.0
2019-12-30T09:40:03,42.805,6.029,-0.048,0.033,0.005,111.0,116.0,106.0,13.4,1505.3,325.0,-0.7,1.8,2470.424,13.33,0.058,304.5
2019-12-30T09:43:03,42.805,6.029,-0.052,0.021,-0.03,110.0,116.0,105.0,13.3,1505.3,326.9,-0.7,1.8,2470.501,13.33,0.056,292.0
2019-12-30T09:46:03,42.805,6.029,-0.012,0.022,0.014,109.0,116.0,106.0,13.3,1505.3,326.7,-0.7,1.8,2470.456,13.33,0.025,331.4
2019-12-30T09:49:03,42.805,6.029,-0.046,0.019,0.005,110.0,115.0,106.0,13.4,1505.3,323.0,-0.7,1.9,2470.476,13.33,0.049,292.4
2019-12-30T09:52:03,42.805,6.029,-0.049,0.025,0.006,112.0,116.0,107.0,13.3,1505.3,325.4,-0.7,1.8,2470.429,13.33,0.055,297.0
2019-12-30T09:55:03,42.805,6.029,-0.059,0.017,-0.039,110.0,116.0,106.0,13.4,1505.3,323.1,-0.6,1.8,2470.468,13.33,0.061,286.1
2019-12-30T09:58:03,42.805,6.029,-0.039,0.036,-0.001,112.0,115.0,106.0,13.4,1505.3,324.6,-0.7,1.8,2470.486,13.33,0.053,312.7
2019-12-30T10:04:03,42.805,6.029,-0.065,0.019,0.008,111.0,115.0,106.0,13.4,1505.3,327.0,-0.7,1.8,2470.482,13.31,0.067,286.3